Location: Newark
(44.1667°N, 8.2500°E)
Time: 07:37:40
(UTC+00:00)

S-56A Canister/Altair - Pass Details

Date: 16 December 2019
Orbit: 634 x 2498 km, 38.9° (Epoch: 22 January)

Event Time Altitude Azimuth Distance (km) Brightness Sun altitude
Rises 08:38:55 0° 243° (WSW) 5,263 11.7 12.9°
Reaches altitude 10° 08:42:04 10° 241° (WSW) 4,473 11.4 13.2°
Maximum altitude 08:54:55 65° 163° (SSE) 2,600 10.9 14.6°
Drops below altitude 10° 09:09:48 10° 87° (E) 5,108 12.2 16.0°
Sets 09:13:39 0° 85° (E) 6,026 12.5 16.4°
